GW5705 Weather Reports


time (UTC)temp
C
wind
direction
speed
KPH
gust
KPH
rain 1hr
cm
rain 24hr
cm
rain mn
cm
humidity
%
barometer
mb
20260507201024 10 97 1.6 6.4 0.00 0.00 0.00 82 1013.2
20260507200023 10 197 3.2 6.4 0.00 0.00 0.00 76 1013.3
20260507195022 11 312 4.8 8.0 0.00 0.00 0.00 78 1013.3
20260507194023 10 207 0.0 11.3 0.00 0.00 0.00 80 1013.5
20260507193024 11 288 3.2 8.0 0.00 0.00 0.00 78 1013.6
20260507192021 10 219 3.2 8.0 0.00 0.00 0.00 83 1013.7
20260507191021 10 283 3.2 11.3 0.00 0.00 0.00 72 1014.0
20260507190024 11 335 3.2 9.7 0.00 0.00 0.00 77 1013.8
20260507185022 11 8 1.6 11.3 0.00 0.00 0.00 83 1014.0
20260507184024 10 76 3.2 6.4 0.00 0.00 0.00 92 1013.9
20260507183022 9 91 4.8 9.7 0.00 0.00 0.00 93 1014.0
20260507182021 11 268 4.8 9.7 0.00 0.00 0.00 89 1014.0
20260507181022 11 256 4.8 6.4 0.00 0.00 0.00 89 1014.0
20260507180023 11 15 3.2 8.0 0.00 0.00 0.00 91 1014.2
20260507175022 11 328 1.6 8.0 0.00 0.00 0.00 93 1014.2
20260507174021 10 23 4.8 8.0 0.00 0.00 0.00 92 1014.5
20260507173022 10 80 3.2 4.8 0.00 0.00 0.00 96 1014.4
20260507172021 9 44 3.2 6.4 0.00 0.00 0.00 96 1014.5
20260507171022 7 339 1.6 6.4 0.00 0.00 0.00 97 1014.9
20260507170023 8 25 1.6 6.4 0.00 0.00 0.00 98 1014.8
20260507165023 8 73 1.6 6.4 0.00 0.00 0.00 99 1015.0
20260507164022 7 59 1.6 6.4 0.00 0.00 0.00 99 1015.0
20260507163021 7 67 1.6 6.4 0.00 0.00 0.00 99 1015.1
20260507162022 6 92 1.6 6.4 0.00 0.00 0.00 99 1015.2
20260507161021 5 204 1.6 6.4 0.00 0.00 0.00 99 1015.8
20260507160022 5 104 3.2 6.4 0.00 0.00 0.00 99 1015.5
20260507155022 5 34 3.2 6.4 0.00 0.00 0.00 99 1015.3
20260507154021 4 96 3.2 6.4 0.00 0.00 0.00 99 1015.5
20260507153022 5 39 4.8 9.7 0.00 0.00 0.00 99 1015.2
20260507152021 5 264 1.6 11.3 0.00 0.00 0.00 99 1015.3
20260507151022 5 70 3.2 8.0 0.00 0.00 0.00 99 1015.1
20260507150021 5 80 3.2 8.0 0.00 0.00 0.00 99 1015.4
20260507145021 4 34 4.8 9.7 0.00 0.00 0.00 99 1015.4
20260507144024 5 221 0.0 6.4 0.00 0.00 0.00 99 1015.6
20260507143021 4 54 1.6 4.8 0.00 0.00 0.00 99 1015.9
20260507142021 5 88 1.6 6.4 0.00 0.00 0.00 99 1016.0
20260507141022 5 77 3.2 6.4 0.00 0.00 0.00 99 1016.0
20260507140021 5 9 1.6 6.4 0.00 0.00 0.00 99 1016.1
20260507135024 5 87 1.6 6.4 0.00 0.00 0.00 99 1016.1
20260507134021 5 37 1.6 8.0 0.00 0.00 0.00 99 1016.1
20260507133022 5 84 3.2 6.4 0.00 0.00 0.00 99 1016.0
20260507132021 5 73 3.2 9.7 0.00 0.00 0.00 99 1016.0
20260507131022 5 131 1.6 9.7 0.00 0.00 0.00 99 1016.2
20260507130024 5 110 3.2 6.4 0.00 0.00 0.00 99 1016.4
20260507125024 5 72 3.2 6.4 0.00 0.00 0.00 99 1016.1
20260507124021 5 18 1.6 6.4 0.00 0.00 0.00 99 1016.2
20260507123021 5 145 3.2 8.0 0.00 0.00 0.00 99 1016.2
20260507122022 5 263 1.6 6.4 0.00 0.00 0.00 99 1016.0
20260507121021 5 309 1.6 8.0 0.00 0.00 0.00 99 1015.9
20260507120021 5 126 3.2 8.0 0.00 0.00 0.00 99 1015.8
20260507115022 5 95 4.8 14.5 0.00 0.00 0.00 99 1015.9
20260507114022 4 90 3.2 6.4 0.00 0.00 0.00 99 1015.9
20260507113023 4 270 3.2 6.4 0.00 0.00 0.00 99 1015.8
20260507112021 4 332 3.2 9.7 0.00 0.00 0.00 99 1016.0
20260507111022 5 274 4.8 11.3 0.00 0.00 0.00 99 1015.7
20260507110021 4 278 8.0 14.5 0.00 0.00 0.00 99 1015.6
20260507105021 4 337 6.4 11.3 0.00 0.00 0.00 99 1015.6
20260507104022 4 264 4.8 11.3 0.00 0.00 0.00 99 1015.6
20260507103021 5 286 4.8 12.9 0.00 0.00 0.00 99 1015.8
20260507102022 5 299 3.2 9.7 0.00 0.00 0.00 99 1015.7
20260507101021 5 266 4.8 6.4 0.00 0.00 0.00 99 1015.6
20260507100022 5 260 4.8 6.4 0.00 0.00 0.00 99 1015.5
20260507095024 5 323 4.8 8.0 0.00 0.00 0.00 99 1015.6
20260507094021 5 282 3.2 6.4 0.00 0.00 0.00 99 1015.4
20260507093022 5 247 1.6 9.7 0.00 0.00 0.00 99 1015.5
20260507092021 5 299 3.2 6.4 0.00 0.00 0.00 99 1015.3
20260507091022 6 266 3.2 8.0 0.00 0.00 0.00 99 1015.7
20260507090021 6 247 3.2 8.0 0.00 0.00 0.00 99 1015.3
20260507085021 6 259 3.2 6.4 0.00 0.00 0.00 99 1015.3
20260507084022 6 348 3.2 8.0 0.00 0.00 0.00 99 1014.9
20260507083021 6 224 1.6 6.4 0.00 0.00 0.00 99 1015.1
20260507082022 6 286 3.2 11.3 0.00 0.00 0.00 99 1015.2
20260507081021 6 270 3.2 8.0 0.00 0.00 0.00 99 1015.4
20260507080021 6 286 1.6 6.4 0.00 0.00 0.00 99 1015.3
20260507075022 6 319 3.2 11.3 0.00 0.00 0.00 99 1015.2
20260507074021 7 303 3.2 8.0 0.00 0.00 0.00 99 1015.3
20260507073026 7 266 3.2 6.4 0.00 0.00 0.00 99 1015.1
20260507072021 7 291 1.6 9.7 0.00 0.00 0.00 99 1014.8
20260507071022 7 262 3.2 11.3 0.00 0.00 0.00 99 1015.1
20260507070023 7 297 3.2 11.3 0.00 0.00 0.00 99 1015.0
20260507065022 7 302 4.8 11.3 0.00 0.00 0.00 99 1015.0
20260507064021 8 308 6.4 12.9 0.00 0.00 0.00 99 1015.2
20260507063024 8 288 6.4 9.7 0.00 0.00 0.00 99 1015.4
20260507062023 8 294 4.8 9.7 0.00 0.00 0.00 99 1015.5
20260507061021 8 293 3.2 11.3 0.00 0.00 0.00 99 1015.7
20260507060022 8 278 6.4 9.7 0.00 0.00 0.00 99 1015.9
20260507055021 9 288 8.0 16.1 0.00 0.00 0.00 99 1015.9
20260507054021 9 279 9.7 14.5 0.00 0.00 0.00 99 1016.0
20260507053022 11 304 9.7 16.1 0.00 0.00 0.00 99 1015.8
20260507052021 11 290 6.4 9.7 0.00 0.00 0.00 99 1015.9
20260507051022 11 264 3.2 8.0 0.00 0.00 0.00 99 1016.1
20260507050022 11 232 6.4 16.1 0.00 0.00 0.00 99 1015.8
20260507045021 11 241 8.0 16.1 0.00 0.00 0.00 99 1015.8
20260507044022 11 248 8.0 11.3 0.00 0.00 0.00 99 1015.5
20260507043023 11 259 6.4 11.3 0.00 0.00 0.00 99 1015.7
20260507042022 11 268 4.8 11.3 0.00 0.00 0.00 99 1015.8
20260507041021 11 256 6.4 12.9 0.00 0.00 0.00 99 1016.1
20260507040021 12 274 1.6 11.3 0.00 0.00 0.00 99 1016.9
20260507035022 12 260 4.8 14.5 0.00 0.00 0.97 99 1016.5
20260507034021 11 269 6.4 9.7 0.00 0.00 0.97 99 1016.7
20260507033022 11 251 6.4 11.3 0.00 0.00 0.97 99 1016.7
20260507032021 11 303 4.8 11.3 0.00 0.00 0.97 99 1016.7
20260507031024 12 271 4.8 12.9 0.00 0.00 0.97 99 1016.6
20260507030021 12 264 8.0 12.9 0.00 0.00 0.97 99 1016.6
20260507025022 13 253 3.2 6.4 0.30 0.00 0.97 99 1016.4
20260507024021 13 239 6.4 11.3 0.15 0.00 0.81 99 1016.6
20260507023021 13 202 3.2 6.4 0.00 0.00 0.66 99 1016.5
20260507022022 13 232 3.2 9.7 0.00 0.00 0.66 99 1016.3
20260507021021 13 242 3.2 11.3 0.00 0.00 0.66 99 1016.5
20260507020022 13 253 8.0 11.3 0.00 0.00 0.66 99 1016.3
20260507015022 13 264 6.4 14.5 0.00 0.00 0.66 99 1016.4
20260507014021 13 251 8.0 14.5 0.00 0.00 0.66 99 1016.2
20260507013022 13 230 4.8 12.9 0.00 0.00 0.66 99 1016.1
20260507012021 13 260 6.4 11.3 0.00 0.00 0.66 99 1016.4
20260507011021 13 288 6.4 11.3 0.00 0.00 0.66 99 1016.5
20260507010022 13 300 6.4 14.5 0.00 0.00 0.66 99 1016.6
20260507005021 13 278 6.4 11.3 0.28 0.00 0.66 99 1016.6
20260507004022 13 301 8.0 17.7 0.28 0.00 0.66 99 1016.5
20260507003021 13 294 11.3 14.5 0.23 0.00 0.64 99 1016.5
20260507002021 13 279 9.7 14.5 0.20 0.00 0.61 98 1016.3
20260507001022 13 257 11.3 16.1 0.13 0.00 0.51 97 1016.0
20260507000023 13 254 11.3 19.3 0.00 0.00 0.38 97 1015.7
20260506235022 13 249 9.7 19.3 0.00 0.00 0.33 96 1015.8
20260506234021 14 245 11.3 20.9 0.00 0.00 0.33 96 1016.0
20260506233022 14 268 11.3 17.7 0.00 0.00 0.33 95 1015.8
20260506232024 14 257 9.7 17.7 0.00 0.00 0.33 95 1015.8
20260506231023 14 260 9.7 20.9 0.00 0.00 0.33 94 1015.7
20260506230022 14 264 8.0 17.7 0.00 0.00 0.33 94 1015.4
20260506225021 14 265 11.3 16.1 0.00 0.00 0.33 94 1015.4
20260506224021 14 263 11.3 20.9 0.00 0.00 0.33 94 1015.8
20260506223022 14 289 12.9 27.4 0.00 0.00 0.33 94 1015.7
20260506222021 14 271 9.7 20.9 0.00 0.00 0.33 93 1015.4
20260506221022 15 256 11.3 16.1 0.00 0.00 0.33 92 1015.4
20260506220024 15 264 11.3 19.3 0.00 0.00 0.33 92 1015.5
20260506215021 15 260 9.7 19.3 0.00 0.00 0.33 92 1015.5
20260506214022 15 258 9.7 17.7 0.00 0.00 0.33 91 1015.2
20260506213021 15 226 11.3 17.7 0.00 0.00 0.33 90 1015.3
20260506212022 15 265 9.7 22.5 0.00 0.00 0.33 90 1015.2
20260506211021 15 268 8.0 20.9 0.00 0.00 0.33 92 1015.1
20260506210024 15 267 9.7 24.1 0.00 0.00 0.33 91 1015.0
20260506205021 14 238 11.3 20.9 0.00 0.00 0.33 91 1014.9
20260506204022 14 281 11.3 19.3 0.00 0.00 0.33 92 1014.7
20260506203021 14 263 11.3 19.3 0.00 0.00 0.33 93 1014.7
20260506202021 14 248 11.3 20.9 0.00 0.00 0.33 94 1014.5